SCP
2 2 3 2 2 1 1 1 1 1 1 1 1 1 1 1 1 1 1 1 1 1 1 1 1 1 1 1 1 1 1 1 1 1 1 1 1 1 1 1 1 1 1
2 2 2 2 2 1 1 1 1 1 2 2 2 2 2 1 1 1 1 1 1 1 2 2 2 2 1 1 1 1 1 1 1 1 1 1 1 1 1 1 1 1 1
1 2 2 2 2 1 1 1 1 1 2 2 2 2 2 1 1 1 1 1 1 1 2 2 2 2 2 2 2 2 1 1 1 1 1 2 2 1 1 1 1 1 1
1 1 1 1 1 1 1 1 1 1 1 2 2 1 1 1 1 1 1 1 1 1 2 2 2 2 3 3 3 2 2 2 1 1 1 2 2 1 1 1 1 1 1
1 1 1 1 1 1 1 1 1 1 1 1 1 1 1 1 1 1 2 2 1 1 2 2 2 2 3 3 3 3 3 2 2 2 2 2 2 2 2 2 2 1 1
2 2 1 1 1 1 1 1 1 1 1 1 1 1 1 1 1 1 2 2 2 2 2 2 3 2 2 3 3 3 3 3 3 3 2 2 2 2 2 2 2 2 2
2 2 2 2 1 1 2 2 2 2 1 1 1 1 1 1 1 2 2 2 2 2 2 3 3 3 3 3 3 3 3 3 3 3 3 2 2 2 2 2 2 2 2
3 3 3 3 2 2 2 3 3 2 2 2 2 2 2 2 2 2 2 2 2 2 2 2 3 4 4 4 3 3 4 4 4 3 3 2 2 2 2 2 2 2 2
4 4 4 4 3 3 4 4 4 4 4 3 3 3 3 3 3 2 2 2 2 2 2 2 3 4 4 4 4 4 4 5 4 4 3 3 2 2 2 2 2 2 2
5 5 5 5 5 5 5 6 7 8 7 6 5 5 5 5 4 3 3 3 3 3 3 3 3 4 4 4 5 5 5 5 5 4 3 3 3 2 2 2 2 2 2
6 6 5 6 7 7 8 9 11 12 11 8 7 7 6 6 5 5 4 4 4 4 3 3 3 4 4 5 5 5 5 5 5 4 4 3 3 3 2 2 2 2 2
6 6 6 7 8 9 10 12 13 13 11 9 8 7 7 7 7 6 6 6 6 5 4 4 4 4 4 5 5 4 4 5 5 4 3 3 3 3 3 2 2 2 2
6 7 8 9 11 12 12 12 11 10 9 9 8 7 8 7 7 7 7 7 6 5 4 3 3 3 3 4 4 4 4 4 4 3 2 2 3 3 3 3 2 2 2
6 7 8 10 12 13 11 10 8 7 6 6 6 7 7 7 6 6 6 5 4 4 3 3 2 2 2 3 4 4 5 4 3 2 2 1 2 2 3 2 2 2 2
6 6 6 8 9 9 8 6 5 5 5 5 5 6 6 5 5 4 4 3 3 2 2 2 2 2 2 3 4 5 6 4 2 1 1 1 1 1 2 2 2 2 1
7 6 5 5 5 5 4 4 4 4 4 4 4 4 4 4 4 4 3 3 3 2 2 2 1 1 2 2 2 4 5 4 2 1 1 1 1 1 1 1 1 1 1
7 6 5 5 4 4 4 4 3 3 3 3 3 3 3 3 3 3 3 3 3 2 1 1 1 2 2 2 2 3 4 3 2 1 1 0 0 1 1 1 1 1 1
7 6 5 5 5 5 5 5 3 3 2 2 3 3 3 3 3 3 2 2 2 2 1 1 1 2 2 3 3 3 2 2 2 1 1 1 1 1 1 1 1 0 0
9 8 6 5 5 5 6 5 4 3 2 2 2 3 3 2 2 2 2 2 2 2 1 1 1 1 2 2 3 3 2 2 2 1 1 1 1 1 1 1 0 0 0
10 9 7 6 6 6 6 6 5 4 3 3 3 3 3 3 2 2 2 2 3 2 1 1 1 1 1 2 2 2 2 2 2 2 1 1 1 1 1 0 0 0 0
10 10 8 7 6 6 5 6 5 5 4 4 3 3 3 3 2 2 2 2 3 2 2 1 1 1 1 2 2 2 2 2 2 2 2 3 2 2 1 1 0 0 0
13 12 10 8 6 5 5 5 5 5 4 4 3 3 3 3 3 2 2 2 2 2 2 1 1 1 2 2 2 2 2 2 2 2 3 3 3 3 2 2 1 0 0
15 14 13 10 8 6 4 4 4 4 5 4 4 3 4 4 3 3 2 2 1 1 1 1 1 1 2 2 2 2 2 2 2 3 3 3 4 4 4 3 2 1 0
13 14 14 12 9 7 4 2 2 3 4 4 4 4 4 5 4 4 3 2 2 2 1 1 1 1 1 2 2 2 2 2 2 3 3 3 3 4 4 4 3 1 0
10 11 12 12 10 7 4 2 1 2 3 3 4 3 3 4 4 4 4 4 3 3 2 1 1 1 1 1 1 1 2 2 2 2 3 3 3 3 4 4 3 2 1
9 9 11 11 9 7 4 2 1 1 2 2 3 3 3 3 4 4 4 4 4 3 2 2 1 1 1 1 1 1 2 2 2 2 2 3 3 3 3 3 3 2 1
Wind_Speed
1 1 1 0 0 1 2 2 2 2 2 1 1 2 2 1 2 3 4 10 10 10 10 9 8 8 7 7 8 8 8 8 7 7 6 7 7 7 7 7 8 8 7
2 1 1 1 1 0 1 1 1 1 1 1 1 1 1 1 2 3 4 6 9 10 10 9 9 8 7 8 7 8 8 8 7 7 7 7 7 7 8 8 8 8 8
2 1 1 1 1 1 1 1 1 1 2 2 1 1 1 1 1 3 3 3 5 8 9 9 8 8 7 7 8 8 8 8 7 7 7 7 7 7 7 7 7 7 7
1 0 1 0 0 0 0 1 1 0 1 1 1 1 1 1 2 2 3 3 4 4 7 9 8 7 7 7 7 8 8 7 7 8 7 7 7 7 7 7 8 8 8
1 1 1 1 0 0 0 0 1 0 1 1 0 1 1 1 2 2 3 3 3 4 4 7 8 7 7 7 7 8 8 7 7 7 7 8 8 8 8 8 8 8 8
1 0 1 0 0 0 1 1 1 0 1 1 1 0 1 1 1 1 2 2 3 4 5 6 5 5 7 6 6 8 8 8 7 7 7 8 8 8 8 8 8 8 9
1 1 1 1 0 0 0 0 0 0 0 0 0 1 1 1 1 1 2 2 2 2 3 5 4 3 4 6 5 6 7 7 6 6 6 6 7 7 7 7 7 7 8
0 1 1 0 0 0 1 0 1 1 1 1 1 0 0 1 1 1 1 2 2 2 2 3 3 3 3 3 3 5 6 5 5 5 5 5 5 5 6 6 7 7 8
1 0 1 0 0 0 1 1 1 0 1 0 1 0 0 0 1 1 0 1 2 2 2 2 3 3 3 3 3 4 4 4 5 5 5 4 4 5 5 6 6 7 7
1 1 1 1 0 1 1 0 1 0 0 1 0 0 1 1 0 1 1 0 1 2 2 2 2 2 3 3 3 5 4 3 3 3 4 4 4 4 5 6 6 7 7
1 1 2 1 1 1 1 0 1 0 0 0 1 0 0 1 1 1 1 1 1 1 2 2 2 2 3 3 3 5 5 3 2 1 1 1 2 3 4 5 6 6 7
2 2 2 1 1 1 1 1 1 1 0 1 1 1 0 0 1 1 1 1 1 1 1 2 2 3 3 3 4 6 6 4 3 1 0 0 1 1 2 3 4 5 6
1 1 2 2 1 1 2 1 1 1 1 1 1 1 1 0 0 0 0 1 1 1 1 1 2 2 2 3 3 6 5 5 4 2 1 0 1 1 1 2 3 3 4
1 2 2 1 1 1 1 1 1 1 1 1 2 1 1 1 0 0 0 1 1 1 0 1 1 2 2 3 4 5 4 5 4 3 2 1 0 0 0 1 1 1 2
1 2 2 1 1 0 0 0 0 1 1 1 1 1 1 1 1 1 1 1 1 1 1 1 1 2 2 3 5 3 3 5 5 4 3 2 2 1 1 1 0 1 1
1 2 1 1 1 0 0 1 1 1 1 1 1 0 1 2 1 1 1 1 1 1 1 1 1 2 2 3 4 3 4 7 6 5 4 4 3 2 1 1 0 0 1
1 1 1 1 1 0 1 1 2 1 1 1 1 0 0 1 1 2 1 1 0 0 1 1 0 1 2 1 2 2 3 4 4 6 6 6 5 4 3 1 1 1 1
2 1 1 1 1 1 1 1 1 1 1 1 1 0 1 1 1 1 2 1 1 0 1 1 0 1 1 1 2 2 2 3 3 6 8 7 6 5 4 3 2 1 0
1 1 1 1 1 1 1 0 1 1 1 1 1 1 1 1 1 1 1 1 1 1 1 1 1 0 0 0 1 2 2 2 3 5 7 7 7 6 6 5 4 3 2
2 2 2 2 2 1 1 1 1 1 1 1 1 1 1 2 2 2 1 1 1 1 0 1 1 1 0 1 0 1 2 1 2 2 3 5 6 7 7 6 5 5 4
3 2 2 2 2 2 2 1 1 1 0 1 1 2 1 1 1 1 1 1 1 1 1 1 1 1 0 0 0 1 2 2 2 1 1 3 4 3 4 6 6 5 5
2 2 2 2 2 2 1 2 1 1 1 1 2 2 2 2 2 2 2 1 1 1 1 1 1 1 1 1 1 2 1 1 2 1 1 3 2 3 4 4 6 7 7
2 2 2 2 2 2 2 2 3 2 2 2 2 3 3 3 3 2 3 4 3 3 3 2 2 2 1 1 1 2 2 2 3 2 2 3 2 2 2 4 10 9 8
2 3 3 3 3 3 3 3 4 4 3 3 3 3 4 3 3 2 3 3 3 3 4 4 3 3 2 1 2 3 3 3 2 1 1 2 2 2 1 2 8 10 9
3 3 3 3 3 3 5 4 4 3 3 4 3 3 3 3 3 4 3 3 3 3 3 4 4 4 4 4 3 2 2 2 3 2 1 1 2 2 1 2 4 8 9
3 3 2 2 3 3 5 6 5 3 3 3 2 2 2 3 4 5 4 3 4 4 3 3 4 5 6 6 6 4 3 3 3 2 1 1 1 1 1 1 2 4 4
Wind_Direction
97 98 97 124 216 144 156 169 156 155 150 165 196 148 136 170 148 143 150 168 172 175 175 180 185 190 192 195 200 201 201 201 202 204 206 206 206 205 207 205 204 204 207
77 72 56 39 355 80 105 125 137 140 144 142 184 151 158 181 162 150 149 167 174 176 179 182 187 192 198 200 202 204 203 204 202 204 204 205 206 206 207 206 209 210 211
91 106 103 74 348 11 93 129 141 166 161 162 163 173 182 195 178 160 163 163 168 179 181 183 188 191 197 202 206 205 200 199 199 204 204 205 205 208 209 208 211 213 215
97 111 90 91 27 5 49 118 131 176 141 135 144 197 184 179 176 179 170 167 162 167 179 182 186 187 192 201 204 203 200 199 202 208 211 211 210 213 216 217 217 218 219
105 99 83 44 307 346 63 167 108 82 95 106 184 210 192 177 183 192 163 168 162 157 159 172 182 184 192 200 203 202 199 203 205 210 215 216 215 215 217 220 220 220 219
122 138 136 88 339 17 37 52 96 148 197 208 235 231 210 192 182 182 168 162 160 169 167 164 172 187 193 195 200 198 198 205 206 211 217 218 219 219 220 222 222 222 223
139 131 1 116 6 77 56 61 106 118 247 128 82 356 300 215 161 141 138 152 165 161 152 149 159 168 182 198 200 194 197 202 204 210 214 217 219 218 218 221 221 224 228
146 137 104 349 44 67 43 50 74 29 328 39 84 324 327 356 16 139 171 165 162 140 142 159 158 156 164 158 167 181 190 193 198 200 203 204 210 215 218 222 227 230 232
136 35 105 49 3 150 121 150 113 172 262 312 69 62 66 48 332 319 250 139 150 149 165 157 143 150 152 138 149 180 187 193 195 193 197 203 209 216 220 226 231 232 232
160 138 117 103 49 45 91 209 148 207 228 312 357 9 71 110 161 318 321 22 156 171 163 167 145 130 129 121 121 127 148 170 181 198 212 213 214 219 225 230 233 234 232
160 167 145 148 170 151 157 160 102 150 162 291 298 274 229 222 224 194 255 267 270 208 161 151 137 122 115 119 118 108 126 144 154 173 218 239 233 235 238 242 245 243 241
164 161 136 152 172 175 181 147 187 156 185 287 299 307 277 232 218 220 235 240 241 255 176 145 136 139 137 126 121 123 131 129 125 122 108 339 280 259 264 259 256 253 248
145 144 134 155 176 174 166 155 176 185 202 247 256 285 295 288 317 344 346 280 260 243 169 142 139 135 135 125 125 132 138 143 143 153 159 350 323 288 287 284 273 267 259
125 128 120 131 166 183 177 172 196 191 197 258 267 271 287 305 287 246 204 258 281 278 152 143 130 134 134 129 136 150 149 157 161 170 174 174 160 28 351 7 341 314 289
142 111 125 139 86 129 233 170 235 248 211 255 273 275 286 294 273 253 227 201 211 265 254 187 142 139 149 141 151 169 159 169 174 175 179 180 169 160 107 130 54 5 332
71 120 130 116 106 8 243 225 242 230 212 250 251 319 323 327 332 299 227 223 229 233 265 223 177 159 164 165 169 184 175 173 177 180 182 179 183 184 175 186 172 35 355
136 134 155 164 175 170 303 253 232 202 215 238 277 195 264 317 319 326 327 327 268 234 238 289 101 131 117 137 155 199 186 181 176 188 186 187 191 190 184 187 180 105 31
166 179 186 197 212 203 220 273 273 230 205 202 214 237 273 284 284 301 322 323 300 227 184 229 318 154 161 164 184 218 202 203 190 195 195 195 193 189 183 187 185 171 169
189 190 185 204 220 234 199 219 318 300 260 227 189 194 215 258 275 276 300 305 314 315 154 180 242 207 173 240 213 242 236 230 216 188 195 195 197 195 192 195 192 187 181
196 200 198 207 207 217 196 220 221 269 265 245 220 205 220 224 241 249 264 273 289 312 290 211 231 227 184 245 215 245 272 253 247 202 199 196 199 203 199 195 190 184 183
199 197 207 217 216 218 220 202 219 237 243 249 238 212 216 209 183 217 260 289 279 262 254 258 248 229 236 176 257 244 249 253 242 215 234 213 191 203 195 188 187 189 190
205 203 216 228 239 247 176 160 199 255 233 236 244 229 214 208 199 198 206 243 231 248 272 267 268 262 266 245 259 269 276 282 269 229 228 253 197 197 189 180 186 188 192
211 220 222 224 227 223 210 198 212 223 246 247 251 243 245 233 204 201 210 224 229 230 230 241 269 278 268 277 278 283 280 275 257 241 234 252 236 216 202 171 177 183 188
219 227 229 223 216 222 214 214 229 220 240 243 236 237 234 239 238 212 225 226 234 236 226 224 236 256 254 261 264 264 271 281 263 245 212 257 269 262 231 169 179 182 187
236 237 230 222 217 221 217 217 223 230 237 245 238 245 231 216 214 212 220 231 238 244 239 226 232 242 244 251 259 286 284 287 282 253 201 236 255 277 257 186 186 186 186
255 250 246 243 233 231 217 209 213 240 241 241 238 228 206 205 215 206 216 231 241 245 250 245 239 242 240 238 235 225 241 261 274 269 249 252 255 252 263 235 178 178 190